Location: Arrakis Observatory
(44.1122°N, 95.7153°W)
Time: 20:26:42
(UTC-05:00)

Amateur Radio Satellites - All Passes

Search period start: 24 October 2014 19:56
Search period end: 25 October 2014 19:56
Location: Arrakis Observatory, 44.1122°N, 95.7153°W

Satellite Date Start Highest point End Downlink Frequencies (MHz)
Time Altitude Azimuth
SO-50 24 Oct 19:58:26 19:59:47 11° 26° (NNE) 20:01:09 436.795 FM
AO-40 24 Oct 20:12:38 23:00:37 31° 199° (SSW) 03:48:55 Beacon 2401.320
ISS 24 Oct 20:13:14 20:16:22 38° 219° (SW) 20:19:30 145.800 FM
SO-67 24 Oct 20:37:08 20:39:25 17° 267° (W) 20:41:42 435.3500 MHz FM
RS-15 24 Oct 20:45:26 20:49:13 12° 94° (E) 20:52:58 29.354 - 29.394 USB, Beacon 29.352 USB
UKube-1 24 Oct 20:49:09 20:51:19 14° 60° (ENE) 20:53:28 145.840 MHz, 145.915 MHz
HO-68 24 Oct 21:03:24 21:10:28 67° 69° (ENE) 21:17:35 435.675 MHz FM
STRAND 1 24 Oct 21:16:10 21:20:49 35° 293° (WNW) 21:25:26 ?
KITSAT 1 24 Oct 21:25:34 21:33:36 63° 52° (NE) 21:41:34 435.175 FM
FUNcube-1 24 Oct 21:28:12 21:30:31 14° 61° (ENE) 21:32:50 145.950 - 145.970 MHz USB
Oscar 11 24 Oct 21:28:57 21:32:39 28° 68° (ENE) 21:36:22 145.825 FM, Beacon 2401.500 USB
SO-50 24 Oct 21:37:01 21:41:37 42° 48° (NE) 21:46:15 436.795 FM
ZACube-1 24 Oct 22:17:19 22:21:37 41° 71° (ENE) 22:25:52 437.345 MHz
UKube-1 24 Oct 22:22:37 22:26:57 68° 258° (WSW) 22:31:19 145.840 MHz, 145.915 MHz
RS-15 24 Oct 22:48:21 22:59:05 63° 116° (ESE) 23:09:45 29.354 - 29.394 USB, Beacon 29.352 USB
HO-68 24 Oct 22:53:01 22:58:42 25° 267° (W) 23:04:25 435.675 MHz FM
UOSAT-12 24 Oct 23:01:20 23:05:32 30° 44° (NE) 23:09:40 437.025 FM, 437.400 FM
FUNcube-1 24 Oct 23:01:46 23:06:21 72° 258° (WSW) 23:10:53 145.950 - 145.970 MHz USB
Oscar 11 24 Oct 23:05:03 23:08:47 28° 265° (W) 23:12:32 145.825 FM, Beacon 2401.500 USB
SO-50 24 Oct 23:17:53 23:22:03 29° 246° (WSW) 23:26:14 436.795 FM
KITSAT 1 24 Oct 23:21:35 23:28:32 33° 252° (WSW) 23:35:28 435.175 FM
MaSat-1 24 Oct 23:51:46 23:55:17 27° 110° (ESE) 23:58:32 437.345 MHz
ZACube-1 24 Oct 23:54:38 23:58:09 22° 267° (W) 00:01:39 437.345 MHz
UOSAT-12 25 Oct 00:41:21 00:45:47 41° 243° (WSW) 00:50:08 437.025 FM, 437.400 FM
RS-15 25 Oct 01:01:30 01:11:53 47° 321° (NW) 01:22:23 29.354 - 29.394 USB, Beacon 29.352 USB
Oscar 10/S400 25 Oct 01:13:48 02:13:24 23° 237° (WSW) 04:58:44 145.825 - 145.975 CW/USB, Beacon 145.810 USB
MaSat-1 25 Oct 01:27:24 01:30:52 27° 304° (NW) 01:34:03 437.345 MHz
Oscar 19 25 Oct 01:56:03 01:59:39 19° 92° (E) 02:03:14 437.125 CW, 437.150 USB
AO-27 25 Oct 02:15:35 02:17:23 12° 88° (E) 02:19:10 436.795 MHz FM
AO-Echo 25 Oct 02:35:22 02:39:43 25° 93° (E) 02:44:03 ?
Oscar 16 25 Oct 02:40:52 02:45:52 50° 100° (E) 02:50:49 437.025 USB, Beacon 2401.1428
JAS-1B 25 Oct 02:43:13 02:49:40 49° 100° (E) 02:57:18 435.800 - 435.900 CW/SSB
Uribyol 2 25 Oct 03:00:55 03:05:37 33° 96° (E) 03:10:16 436.500 FM
ITAMSAT 1 25 Oct 03:06:56 03:11:43 35° 97° (E) 03:16:28 435.822 SSB
PCSat 25 Oct 03:07:43 03:09:51 12° 102° (ESE) 03:11:59 145.825 MHz
RS-15 25 Oct 03:19:16 03:27:55 26° 354° (N) 03:36:43 29.354 - 29.394 USB, Beacon 29.352 USB
Gurwin Techsat 1B 25 Oct 03:27:48 03:32:27 30° 95° (E) 03:37:04 435.225 FM
Oscar 19 25 Oct 03:34:21 03:39:21 56° 289° (WNW) 03:44:20 437.125 CW, 437.150 USB
TMSAT-1 25 Oct 03:38:59 03:43:32 28° 95° (E) 03:48:04 436.925 FM
AO-27 25 Oct 03:52:20 03:57:37 90° 285° (WNW) 04:02:50 436.795 MHz FM
AO-Echo 25 Oct 04:13:36 04:18:39 46° 290° (WNW) 04:23:42 ?
AO-7 25 Oct 04:20:18 04:26:08 21° 90° (E) 04:31:57 29.400 - 29.500 MHz
Oscar 16 25 Oct 04:20:57 04:24:53 23° 297° (WNW) 04:28:48 437.025 USB, Beacon 2401.1428
Sapphire 25 Oct 04:24:41 04:29:55 53° 115° (ESE) 04:35:12 437.095 MHz 1200 baud AX-25 AFSK
JAS-1B 25 Oct 04:34:24 04:40:10 34° 295° (WNW) 04:46:51 435.800 - 435.900 CW/SSB
Uribyol 2 25 Oct 04:40:24 04:45:04 34° 294° (WNW) 04:49:41 436.500 FM
ITAMSAT 1 25 Oct 04:46:32 04:51:08 32° 294° (WNW) 04:55:42 435.822 SSB
PCSat 25 Oct 04:46:59 04:52:24 87° 120° (ESE) 04:57:52 145.825 MHz
Gurwin Techsat 1B 25 Oct 05:07:35 05:12:28 38° 293° (WNW) 05:17:19 435.225 FM
OPAL 25 Oct 05:09:23 05:14:21 52° 68° (ENE) 05:19:18 ?
TMSAT-1 25 Oct 05:18:37 05:23:33 40° 292° (WNW) 05:28:27 436.925 FM
AO-27 25 Oct 05:33:47 05:36:22 14° 303° (WNW) 05:38:56 436.795 MHz FM
RS-15 25 Oct 05:34:50 05:44:42 35° 29° (NNE) 05:54:50 29.354 - 29.394 USB, Beacon 29.352 USB
JAS-2 25 Oct 05:55:41 06:02:27 32° 92° (E) 06:09:12 435.800 - 435.900 CW/SSB, 435.910 FM
Uosat F 25 Oct 05:58:32 06:03:37 80° 104° (ESE) 06:08:40 435.120 FM
Sapphire 25 Oct 06:09:01 06:13:38 28° 315° (NW) 06:18:17 437.095 MHz 1200 baud AX-25 AFSK
AO-7 25 Oct 06:11:32 06:19:55 88° 290° (WNW) 06:28:16 29.400 - 29.500 MHz
PCSat 25 Oct 06:32:39 06:36:33 20° 321° (NW) 06:40:27 145.825 MHz
OPAL 25 Oct 06:49:39 06:53:30 21° 265° (W) 06:57:21 ?
STRAND 1 25 Oct 06:54:17 06:59:15 52° 70° (ENE) 07:04:16 ?
Hamsat 25 Oct 06:58:03 07:02:08 50° 99° (E) 07:06:14 145.90 MHz
Uosat F 25 Oct 07:38:59 07:41:45 15° 302° (WNW) 07:44:30 435.120 FM
JAS-2 25 Oct 07:40:11 07:47:47 62° 290° (WNW) 07:55:27 435.800 - 435.900 CW/SSB, 435.910 FM
RS-15 25 Oct 07:47:32 07:58:45 87° 56° (NE) 08:10:26 29.354 - 29.394 USB, Beacon 29.352 USB
Saudisat 1A 25 Oct 07:50:48 07:54:51 37° 117° (ESE) 07:58:55 436.775 MHz
SO-67 25 Oct 07:57:47 08:00:48 28° 96° (E) 08:03:48 435.3500 MHz FM
AO-7 25 Oct 08:05:34 08:11:38 23° 310° (NW) 08:17:43 29.400 - 29.500 MHz
STRAND 1 25 Oct 08:34:58 08:38:45 21° 268° (W) 08:42:33 ?
Hamsat 25 Oct 08:35:06 08:37:43 16° 296° (WNW) 08:40:19 145.90 MHz
JAS-2 25 Oct 09:27:22 09:31:22 15° 309° (NW) 09:35:26 435.800 - 435.900 CW/SSB, 435.910 FM
Saudisat 1A 25 Oct 09:30:38 09:34:29 29° 316° (NW) 09:38:22 436.775 MHz
SO-67 25 Oct 09:31:11 09:33:36 18° 292° (WNW) 09:36:01 435.3500 MHz FM
MaSat-1 25 Oct 09:35:55 09:38:34 64° 61° (ENE) 09:40:59 437.345 MHz
RS-15 25 Oct 10:01:11 10:09:47 27° 257° (WSW) 10:18:41 29.354 - 29.394 USB, Beacon 29.352 USB
UKube-1 25 Oct 10:10:14 10:13:15 18° 93° (E) 10:16:14 145.840 MHz, 145.915 MHz
HO-68 25 Oct 10:16:55 10:24:03 60° 102° (ESE) 10:31:07 435.675 MHz FM
FUNcube-1 25 Oct 10:50:27 10:53:30 19° 92° (E) 10:56:30 145.950 - 145.970 MHz USB
Oscar 11 25 Oct 10:50:27 10:54:36 45° 99° (E) 10:58:44 145.825 FM, Beacon 2401.500 USB
Sapphire 25 Oct 11:29:02 11:31:52 14° 33° (NNE) 11:34:40 437.095 MHz 1200 baud AX-25 AFSK
ZACube-1 25 Oct 11:41:13 11:45:29 69° 102° (ESE) 11:49:39 437.345 MHz
Oscar 10/S400 25 Oct 11:42:37 11:55:18 15° 150° (SSE) 12:05:10 145.825 - 145.975 CW/USB, Beacon 145.810 USB
UKube-1 25 Oct 11:45:29 11:49:40 45° 289° (WNW) 11:53:49 145.840 MHz, 145.915 MHz
PCSat 25 Oct 11:50:58 11:54:52 20° 39° (NE) 11:58:44 145.825 MHz
KITSAT 1 25 Oct 11:56:13 12:03:11 33° 108° (ESE) 12:10:10 435.175 FM
HO-68 25 Oct 12:05:16 12:11:19 31° 301° (WNW) 12:17:22 435.675 MHz FM
Oscar 16 25 Oct 12:23:43 12:25:52 13° 57° (ENE) 12:28:00 437.025 USB, Beacon 2401.1428
FUNcube-1 25 Oct 12:26:05 12:30:04 39° 290° (WNW) 12:33:57 145.950 - 145.970 MHz USB
Oscar 11 25 Oct 12:27:29 12:30:27 19° 296° (WNW) 12:33:25 145.825 FM, Beacon 2401.500 USB
ISS 25 Oct 12:56:10 12:59:06 29° 138° (SE) 13:02:03 145.800 FM
Sapphire 25 Oct 13:11:04 13:16:28 60° 55° (NE) 13:21:49 437.095 MHz 1200 baud AX-25 AFSK
Oscar 19 25 Oct 13:14:07 13:18:40 33° 66° (ENE) 13:23:14 437.125 CW, 437.150 USB
ZACube-1 25 Oct 13:19:29 13:21:18 13° 300° (WNW) 13:23:06 437.345 MHz
JAS-1B 25 Oct 13:31:57 13:37:25 42° 67° (ENE) 13:42:43 435.800 - 435.900 CW/SSB
SO-50 25 Oct 13:33:24 13:37:51 67° 122° (ESE) 13:42:28 436.795 FM
PCSat 25 Oct 13:33:33 13:39:01 87° 240° (WSW) 13:44:26 145.825 MHz
AO-27 25 Oct 13:34:09 13:38:09 23° 62° (ENE) 13:42:11 436.795 MHz FM
AO-Echo 25 Oct 13:49:45 13:54:12 35° 67° (ENE) 13:58:48 ?
KITSAT 1 25 Oct 13:50:09 13:58:08 62° 308° (NW) 14:06:10 435.175 FM
Oscar 16 25 Oct 13:59:15 14:04:25 84° 75° (ENE) 14:09:36 437.025 USB, Beacon 2401.1428
Uribyol 2 25 Oct 14:20:05 14:25:12 58° 71° (ENE) 14:30:21 436.500 FM
ITAMSAT 1 25 Oct 14:26:17 14:31:24 62° 72° (ENE) 14:36:35 435.822 SSB
ISS 25 Oct 14:32:28 14:35:42 45° 336° (NNW) 14:38:56 145.800 FM
Saudisat 1A 25 Oct 14:38:14 14:39:26 11° 29° (NNE) 14:40:37 436.775 MHz
Gurwin Techsat 1B 25 Oct 14:50:13 14:55:23 54° 71° (ENE) 15:00:34 435.225 FM
Oscar 19 25 Oct 14:53:20 14:57:58 33° 264° (W) 15:02:36 437.125 CW, 437.150 USB
UOSAT-12 25 Oct 14:53:31 14:57:52 42° 117° (ESE) 15:02:19 437.025 FM, 437.400 FM
Sapphire 25 Oct 14:55:24 14:59:26 22° 253° (WSW) 15:03:27 437.095 MHz 1200 baud AX-25 AFSK
TMSAT-1 25 Oct 15:01:03 15:06:09 51° 70° (ENE) 15:11:17 436.925 FM
AO-27 25 Oct 15:12:15 15:17:19 52° 260° (W) 15:22:26 436.795 MHz FM
SO-50 25 Oct 15:15:25 15:18:53 21° 322° (NW) 15:22:26 436.795 FM
PCSat 25 Oct 15:19:23 15:21:35 13° 258° (WSW) 15:23:46 145.825 MHz
AO-7 25 Oct 15:20:45 15:27:58 35° 57° (ENE) 15:35:12 29.400 - 29.500 MHz
JAS-1B 25 Oct 15:23:25 15:28:20 27° 265° (W) 15:33:05 435.800 - 435.900 CW/SSB
AO-Echo 25 Oct 15:28:45 15:33:00 29° 266° (W) 15:37:24 ?
Uosat F 25 Oct 15:36:42 15:40:02 18° 60° (ENE) 15:43:24 435.120 FM
Oscar 16 25 Oct 15:42:17 15:44:24 12° 272° (W) 15:46:32 437.025 USB, Beacon 2401.1428
KITSAT 1 25 Oct 15:49:22 15:55:20 22° 333° (NNW) 16:01:19 435.175 FM
Uribyol 2 25 Oct 16:01:24 16:05:03 19° 269° (W) 16:08:44 436.500 FM
ITAMSAT 1 25 Oct 16:07:52 16:11:20 18° 269° (W) 16:14:49 435.822 SSB
ISS 25 Oct 16:10:15 16:12:57 22° 356° (N) 16:15:39 145.800 FM
JAS-2 25 Oct 16:12:19 16:15:45 15° 51° (NE) 16:19:22 435.800 - 435.900 CW/SSB, 435.910 FM
Saudisat 1A 25 Oct 16:15:45 16:20:04 48° 50° (NE) 16:24:21 436.775 MHz
Gurwin Techsat 1B 25 Oct 16:31:45 16:35:40 21° 268° (W) 16:39:37 435.225 FM
UOSAT-12 25 Oct 16:34:02 16:38:09 30° 317° (NW) 16:42:19 437.025 FM, 437.400 FM
TMSAT-1 25 Oct 16:42:17 16:46:21 22° 268° (W) 16:50:27 436.925 FM
AO-7 25 Oct 17:12:13 17:20:21 60° 257° (WSW) 17:28:33 29.400 - 29.500 MHz
Uosat F 25 Oct 17:13:21 17:18:19 64° 258° (WSW) 17:23:21 435.120 FM
OPAL 25 Oct 17:21:00 17:21:47 10° 90° (E) 17:22:33 ?
ISS 25 Oct 17:47:21 17:50:21 29° 16° (NNE) 17:53:20 145.800 FM
KITSAT 1 25 Oct 17:50:08 17:54:25 15° 4° (N) 17:58:42 435.175 FM
Hamsat 25 Oct 17:52:42 17:56:40 42° 72° (ENE) 18:00:38 145.90 MHz
JAS-2 25 Oct 17:53:29 17:59:27 75° 73° (ENE) 18:06:19 435.800 - 435.900 CW/SSB, 435.910 FM
Saudisat 1A 25 Oct 17:56:01 17:59:19 21° 248° (WSW) 18:02:36 436.775 MHz
SO-67 25 Oct 18:33:10 18:34:49 13° 65° (ENE) 18:36:27 435.3500 MHz FM
OPAL 25 Oct 18:56:23 19:01:23 88° 107° (ESE) 19:06:19 ?
STRAND 1 25 Oct 19:04:43 19:07:46 16° 90° (E) 19:10:48 ?
HO-68 25 Oct 19:05:16 19:07:33 12° 45° (NE) 19:09:49 435.675 MHz FM
AO-7 25 Oct 19:13:47 19:14:51 10° 276° (W) 19:15:55 29.400 - 29.500 MHz
ISS 25 Oct 19:23:56 19:27:15 66° 215° (SW) 19:30:33 145.800 FM
Hamsat 25 Oct 19:30:00 19:32:49 17° 268° (W) 19:35:39 145.90 MHz
JAS-2 25 Oct 19:41:18 19:45:26 19° 274° (W) 19:49:54 435.800 - 435.900 CW/SSB, 435.910 FM
